Location: Eisingen in Unterfranken
(49.7591°N, 9.8347°E)
Time: 14:21:00
(UTC+01:00)

N. Korean satellite - Pass Details

Date: 08 December 2022
Orbit: 407 x 441 km, 97.3° (Epoch: 05 February)

Event Time Altitude Azimuth Distance (km) Brightness Sun altitude
Rises 04:54:40 0° 25° (NNE) 2,512 10.5 -29.5°
Reaches altitude 10° 04:57:08 10° 43° (NE) 1,622 9.7 -29.1°
Maximum altitude 04:59:47 20° 93° (E) 1,113 9.1 -28.7°
Drops below altitude 10° 05:02:24 10° 143° (SE) 1,589 9.6 -28.3°
Sets 05:04:47 0° 160° (SSE) 2,443 10.4 -27.9°
